Zurück zum Katalog

STARLINK-32906

AktivKommunikationVLEO
NORAD 63080·PAYLOAD·🇺🇸 United States

Gestartet Feb 23, 2025 von Vandenberg Space Force Base

Loading…

Nächste Überflüge (nächste 24 Stunden)

TLE

AktuellSource: CelesTrak SupGP

Epoche: Sep 15, 2026, 03:29 UTC

1 63080C 25037D   26258.14562500 -.00045524  00000+0 -15836-2 0  2584
2 63080  70.0008 235.1528 0002958 268.0203   3.6513 15.29603043    17

Verfolge STARLINK-32906 in Echtzeit mit AllMySat

Download on the App Store